Weather History for KJEF - February, 2013

Change the Weather History Date:

Thursday, February 7, 2013

  Actual Average Record
Temperature  
Mean Temperature 44 °F -  
Max Temperature 50 °F 37 °F 72 °F (2015)
Min Temperature 37 °F 16 °F -9 °F (2014)
Degree Days  
Heating Degree Days 22    
Moisture  
Dew Point 38 °F    
Average Humidity 75    
Maximum Humidity 93    
Minimum Humidity 48    
Precipitation  
Precipitation 0.21 in - - ()
Sea Level Pressure  
Sea Level Pressure 29.95 in    
Wind  
Wind Speed 5 mph (North)    
Max Wind Speed 14 mph    
Max Gust Speed 22 mph    
Visibility 8 miles    
Events Rain    
Averages and records for this station are not official NWS values.
T = Trace of Precipitation, MM = Missing Value Source: NWS Daily Summary

Daily Weather History Graph

Daily Weather History Graph

Search for Another Location

Airport or City:

Trip Planner

Search our weather history database for the weather conditions in past years. The results will help you decide how hot, cold, wet, or windy it might be!

Date:

Astronomy

Feb. 07, 2013 Rise Set
Actual Time 7:08 AM CST 5:37 PM CST
Civil Twilight 6:40 AM CST 6:05 PM CST
Nautical Twilight 6:09 AM CST 6:36 PM CST
Astronomical Twilight 5:38 AM CST 7:07 PM CST
Moon 4:46 AM CST (2/7) 3:03 PM CST (2/7)
Length of Visible Light 11h 24m
Length of Day
10h 29m
Waning Crescent, 9% of the Moon is Illuminated
Feb 7
Waning Crescent
Feb 10
New
Feb 17
First Quarter
Feb 25
Full
Mar 4
Last Quarter

Hourly Weather History & Observations

Time (CST) Temp. Windchill Dew Point Humidity Pressure Visibility Wind Dir Wind Speed Gust Speed Precip Events Conditions
12:53 AM 46.9 °F - 28.0 °F 48% 29.97 in 10.0 mi ESE 5.8 mph - N/A   Mostly Cloudy
1:53 AM 48.0 °F - 30.0 °F 50% 29.96 in 10.0 mi East 5.8 mph - N/A   Overcast
2:53 AM 48.0 °F - 30.0 °F 50% 29.94 in 10.0 mi East 9.2 mph - N/A   Mostly Cloudy
3:53 AM 46.9 °F - 32.0 °F 56% 29.93 in 10.0 mi ESE 8.1 mph - N/A   Overcast
4:53 AM 46.9 °F - 32.0 °F 56% 29.92 in 10.0 mi East 5.8 mph - N/A   Overcast
5:53 AM 46.9 °F - 33.1 °F 59% 29.91 in 10.0 mi ESE 5.8 mph - N/A   Overcast
6:44 AM 44.6 °F - 33.8 °F 66% 29.94 in 10.0 mi Calm Calm - N/A   Overcast
6:53 AM 46.0 °F 44.8 °F 34.0 °F 63% 29.93 in 10.0 mi West 3.5 mph - N/A   Overcast
7:09 AM 46.4 °F - 33.8 °F 62% 29.95 in 10.0 mi Calm Calm - N/A   Overcast
7:42 AM 48.2 °F - 33.8 °F 58% 29.94 in 10.0 mi SSE 3.5 mph - 0.00 in   Overcast
7:53 AM 46.9 °F - 35.1 °F 63% 29.92 in 8.0 mi SE 4.6 mph - 0.00 in Rain Light Rain
8:53 AM 45.0 °F 42.6 °F 37.9 °F 76% 29.91 in 9.0 mi SE 4.6 mph - 0.04 in Rain Light Rain
9:53 AM 45.0 °F 41.8 °F 39.9 °F 82% 29.90 in 3.0 mi ESE 5.8 mph - 0.05 in Rain Light Rain
10:53 AM 46.0 °F - 39.9 °F 79% 29.91 in 8.0 mi Calm Calm - 0.01 in Rain Light Rain
11:53 AM 46.0 °F - 42.1 °F 86% 29.90 in 6.0 mi Calm Calm - 0.03 in Rain Light Rain
12:53 PM 46.9 °F - 43.0 °F 86% 29.88 in 4.0 mi Calm Calm - 0.03 in Rain Light Rain
1:09 PM 46.4 °F - 42.8 °F 87% 29.90 in 4.0 mi Calm Calm - 0.02 in Rain Light Rain
1:53 PM 48.0 °F - 45.0 °F 89% 29.87 in 5.0 mi Calm Calm - 0.03 in   Overcast
2:04 PM 48.2 °F - 44.6 °F 87% 29.89 in 3.0 mi Calm Calm - 0.01 in Rain Light Rain
2:29 PM 48.2 °F - 46.4 °F 93% 29.88 in 5.0 mi Calm Calm - 0.02 in Rain Light Rain
2:53 PM 50.0 °F - 46.0 °F 86% 29.86 in 5.0 mi Calm Calm - 0.02 in   Overcast
3:53 PM 50.0 °F - 46.9 °F 89% 29.87 in 5.0 mi WNW 5.8 mph - N/A   Overcast
4:49 PM 48.2 °F - 44.6 °F 87% 29.93 in 9.0 mi NW 6.9 mph - N/A   Overcast
4:53 PM 48.9 °F - 45.0 °F 86% 29.91 in 9.0 mi NW 5.8 mph - N/A   Overcast
5:41 PM 48.2 °F - 44.6 °F 87% 29.96 in 10.0 mi NW 6.9 mph - N/A   Overcast
5:53 PM 48.0 °F - 43.0 °F 83% 29.95 in 10.0 mi NW 6.9 mph - N/A   Overcast
6:53 PM 48.0 °F - 41.0 °F 77% 29.98 in 10.0 mi NNW 12.7 mph 18.4 mph N/A   Overcast
7:53 PM 46.0 °F 39.9 °F 39.9 °F 79% 30.00 in 10.0 mi NW 13.8 mph 20.7 mph N/A   Overcast
8:08 PM 44.6 °F 38.1 °F 39.2 °F 81% 30.03 in 10.0 mi NNW 13.8 mph - N/A   Overcast
8:53 PM 43.0 °F 36.8 °F 37.0 °F 80% 30.04 in 10.0 mi North 11.5 mph - N/A   Overcast
9:49 PM 41.0 °F 33.9 °F 35.6 °F 81% 30.09 in 5.0 mi NW 12.7 mph 21.9 mph N/A   Haze
9:53 PM 39.9 °F 32.9 °F 35.1 °F 83% 30.08 in 5.0 mi NW 11.5 mph 21.9 mph N/A   Haze
10:53 PM 37.9 °F 29.6 °F 32.0 °F 79% 30.10 in 5.0 mi NNW 13.8 mph - N/A   Haze
11:53 PM 37.0 °F 30.4 °F 30.9 °F 79% 30.12 in 5.0 mi NNW 9.2 mph - N/A   Haze